This is the latest recevied weather packets stored in our database for station/object KC5TIL-3. If no packets are shown the sender has not sent any weather packets the latest 10 day(s).
| Time | Temp. | Humidity | Pressure | Rain* | Wind** | Luminosity | Snow |
|---|---|---|---|---|---|---|---|
| 1777298510 | 25.56° C | 57% | 1004.8 hPa | 0 mm | 3.13 m/s, 185° | - | - |
| 1777298212 | 25.56° C | 58% | 1004.8 hPa | 0 mm | 4.47 m/s, 221° | - | - |
| 1777297911 | 25.56° C | 59% | 1004.8 hPa | 0 mm | 2.68 m/s, 196° | - | - |
| 1777297613 | 25° C | 59% | 1004.8 hPa | 0 mm | 4.92 m/s, 194° | - | - |
| 1777297314 | 25° C | 60% | 1004.8 hPa | 0 mm | 3.13 m/s, 172° | - | - |
| 1777297013 | 25° C | 61% | 1004.8 hPa | 0 mm | 3.58 m/s, 216° | - | - |
| 1777296715 | 25° C | 61% | 1004.8 hPa | 0 mm | 4.92 m/s, 207° | - | - |
| 1777296412 | 25° C | 61% | 1004.8 hPa | 0 mm | 4.02 m/s, 208° | - | - |
| 1777296111 | 24.44° C | 62% | 1004.8 hPa | 0 mm | 4.02 m/s, 203° | - | - |
| 1777295514 | 24.44° C | 64% | 1004.8 hPa | 0 mm | 4.02 m/s, 207° | - | - |
| 1777295213 | 24.44° C | 65% | 1004.8 hPa | 0 mm | 3.58 m/s, 148° | - | - |
| 1777294915 | 24.44° C | 66% | 1004.8 hPa | 0 mm | 4.47 m/s, 205° | - | - |
| 1777294612 | 24.44° C | 67% | 1004.8 hPa | 0 mm | 3.58 m/s, 199° | - | - |
| 1777294013 | 24.44° C | 68% | 1004.8 hPa | 0 mm | 3.13 m/s, 200° | - | - |
| 1777293715 | 24.44° C | 68% | 1004.8 hPa | 0 mm | 4.02 m/s, 212° | - | - |
| 1777293413 | 24.44° C | 68% | 1004.8 hPa | 0 mm | 4.47 m/s, 205° | - | - |
| 1777292817 | 24.44° C | 68% | 1004.8 hPa | 0 mm | 3.58 m/s, 205° | - | - |
| 1777292218 | 24.44° C | 69% | 1004.8 hPa | 0 mm | 4.47 m/s, 184° | - | - |
| 1777291920 | 24.44° C | 69% | 1004.8 hPa | 0 mm | 3.58 m/s, 184° | - | - |
| 1777291320 | 24.44° C | 70% | 1003.8 hPa | 0 mm | 4.47 m/s, 203° | - | - |
| 1777290423 | 24.44° C | 70% | 1003.8 hPa | 0 mm | 3.13 m/s, 197° | - | - |
| 1777289525 | 24.44° C | 69% | 1003.8 hPa | 0 mm | 3.13 m/s, 200° | - | - |
| 1777288628 | 24.44° C | 70% | 1003.8 hPa | 0 mm | 3.13 m/s, 193° | - | - |
| 1777288028 | 24.44° C | 70% | 1003.8 hPa | 0 mm | 3.13 m/s, 192° | - | - |
| 1777287730 | 24.44° C | 70% | 1003.8 hPa | 0 mm | 3.13 m/s, 203° | - | - |
* Rain latest hour (hover to see other rain measurements)
** Current wind speed in m/s (hover to see current wind gust speed)